[[{"header":{"parameterUnit":"m.s-1","parameterCategory":1,"la1":30.2991,"la2":30.254,"lo1":-89.0895,"lo2":-89.0444,"dy":0.0017,"dx":0.0017,"nx":28,"ny":28,"refTime":"2025-12-16T03:00:00:Z","depth":0,"parameterNumber":2,"parameterNumberName":"U-component_of_WINDS"},"data":[0,0,0,0,0,0,0,0,0,0,0,0,0,0,0,0,0,0,0,0,0,0,0,0,0,0,0,0,0,0,0,0,0,0,0,0,0,0,0,0,0,0,0,0,0,0,0,0,0,0,0,0,0,0,0,0,0,0,-6.2721,-6.2722,0,-6.2824,-6.2825,-6.2827,-6.2731,-6.2728,-6.2724,-6.272,-6.2824,-6.283,-6.2837,0,0,0,0,0,0,0,0,0,0,0,0,0,-6.2442,-6.2448,-6.2721,-6.2722,-6.2724,-6.2824,-6.2825,-6.2827,-6.2732,-6.2727,-6.2723,-6.2718,-6.2822,-6.283,-6.2837,0,0,0,0,0,0,0,0,0,0,0,0,0,-6.2556,-6.2449,-6.2721,-6.2689,-6.2687,-6.2824,-6.2825,-6.2827,-6.2733,-6.2727,-6.2722,-6.2716,-6.282,-6.2829,-6.2838,-6.3012,0,0,-6.2867,-6.2871,0,0,0,0,0,0,0,0,-6.255,-6.2566,-6.2692,-6.2691,-6.2689,-6.2759,-6.2765,-6.2889,-6.2735,-6.2716,-6.272,-6.2713,-6.2807,-6.2817,-6.2849,-6.3017,-6.3021,-6.2868,-6.2874,-6.2878,-6.2881,0,0,0,0,0,0,0,-6.2542,-6.2561,-6.2762,-6.2694,-6.2692,-6.2669,-6.2679,-6.2788,-6.2792,-6.2717,-6.271,-6.2724,-6.2805,-6.284,-6.2851,-6.3023,-6.2868,-6.2876,-6.2882,-6.2886,-6.3339,-6.3345,0,0,0,0,0,0,-6.2537,-6.2555,-6.2758,-6.2765,-6.2604,-6.2679,-6.269,-6.2742,-6.2791,-6.2793,-6.2728,-6.2719,-6.2827,-6.284,-6.2854,-6.306,-6.2878,-6.2887,-6.2892,-6.3333,-6.334,-6.3347,0,0,0,0,0,0,-6.2532,-6.2556,-6.2754,-6.2658,-6.2682,-6.2689,-6.275,-6.2748,-6.2782,-6.28,-6.28,-6.2763,-6.2823,-6.2841,-6.2974,-6.3063,-6.2891,-6.29,-6.3325,-6.3335,-6.3344,-6.3475,0,0,0,0,0,0,-6.2524,-6.2555,-6.2621,-6.2661,-6.2687,-6.2872,-6.2755,-6.2754,-6.2799,-6.2788,-6.2833,-6.2834,-6.282,-6.296,-6.2983,-6.3073,-6.2907,-6.3317,-6.333,-6.3341,-6.3462,-6.3488,-6.3509,0,0,0,0,0,-6.2515,-6.2653,-6.2625,-6.265,-6.277,-6.2878,-6.2893,-6.2873,-6.2807,-6.2873,-6.2885,-6.2833,-6.305,-6.2974,-6.3,-6.3093,-6.3312,-6.3326,-6.334,-6.3452,-6.3483,-6.3508,0,0,0,0,0,0,-6.2622,-6.2657,-6.2626,-6.2782,-6.2828,-6.2861,-6.2944,-6.2906,-6.2971,-6.2958,-6.2931,-6.2942,-6.3082,-6.3101,-6.3017,-6.3265,-6.317,-6.319,-6.3246,-6.3276,-6.3299,-6.329,-6.2915,0,0,0,0,0,-6.2664,-6.2749,-6.2775,-6.291,-6.2935,-6.2936,-6.2982,-6.2964,-6.301,-6.3028,-6.3049,-6.3096,-6.3174,-6.3226,-6.33,-6.3466,-6.3474,-6.3543,-6.3566,-6.3585,-6.3602,-6.3692,-6.3723,-6.3394,-6.3394,-6.3394,0,0,-6.2751,-6.2781,-6.2836,-6.2933,-6.2966,-6.3054,-6.2953,-6.305,-6.3115,-6.3043,-6.3169,-6.3187,-6.3237,-6.3388,-6.3455,-6.3408,-6.3696,-6.3604,-6.3619,-6.3625,-6.371,-6.3741,-6.3768,-6.3404,-6.3402,-6.3401,0,0,-6.2955,-6.2987,-6.3102,-6.3139,-6.3191,-6.3191,-6.3219,-6.326,-6.3269,-6.3396,-6.3344,-6.3421,-6.3557,-6.3595,-6.3632,-6.3854,-6.3809,-6.3879,-6.4,-6.4087,-6.4113,-6.4136,-6.4214,-6.4243,-6.3896,-6.3897,-6.3897,0,-6.3056,-6.3187,-6.3166,-6.3268,-6.3312,-6.3253,-6.337,-6.3406,-6.3479,-6.3511,-6.3458,-6.3628,-6.3658,-6.3816,-6.3871,-6.3904,-6.3934,-6.3872,-6.4111,-6.4134,-6.4155,-6.4229,-6.4259,-6.3905,-6.3904,-6.3903,-6.3902,0,-6.3309,-6.3401,-6.3489,-6.3562,-6.3616,-6.3726,-6.3721,-6.3779,-6.3757,-6.3763,-6.3894,-6.3928,-6.4007,-6.4044,-6.4023,-6.4201,-6.417,-6.4115,-6.4019,-6.4195,-6.4264,-6.4292,-6.3916,-6.3913,-6.3911,-6.3909,0,0,-6.3579,-6.3642,-6.3675,-6.3708,-6.3763,-6.3833,-6.3941,-6.4019,-6.4069,-6.4123,-6.4212,-6.433,-6.428,-6.4322,-6.4305,-6.4383,-6.4556,-6.4318,-6.4319,-6.436,-6.4754,-6.4793,-6.4827,-6.4528,-6.4534,-6.4538,-6.4749,0,-6.3783,-6.397,-6.3955,-6.4131,-6.4216,-6.4163,-6.4256,-6.43,-6.431,-6.4384,-6.4394,-6.4478,-6.4406,-6.4431,-6.4506,-6.4519,-6.4634,-6.4504,-6.4609,-6.4613,-6.4596,-6.4863,-6.4905,-6.5102,-6.4776,-6.4781,-6.4784,0,-6.4045,-6.411,-6.4294,-6.4338,-6.4373,-6.4457,-6.4529,-6.4601,-6.465,-6.4652,-6.4701,-6.4672,-6.4781,-6.4685,-6.4834,-6.4745,-6.4788,-6.4802,-6.4809,-6.4816,-6.4707,-6.4875,-6.5165,-6.5194,-6.4827,-6.4823,-6.482,0,-6.4223,-6.4356,-6.4483,-6.4514,-6.4568,-6.4629,-6.4654,-6.4698,-6.4747,-6.481,-6.4842,-6.4917,-6.4958,-6.5017,-6.5009,-6.494,-6.5161,-6.5064,-6.5164,-6.5165,-6.5211,-6.5207,-6.5509,-6.5243,-6.5242,-6.5242,-6.5241,0,-6.4451,-6.4565,-6.4564,-6.4642,-6.4769,-6.4753,-6.488,-6.4898,-6.4939,-6.5019,-6.4979,-6.5056,-6.5042,-6.5119,-6.5114,-6.5238,-6.5257,-6.5261,-6.5258,-6.5264,-6.5263,-6.5289,-6.5275,-6.5249,-6.5248,-6.5246,-6.5245,0,-6.4668,-6.4672,-6.4807,-6.4849,-6.4863,-6.4954,-6.499,-6.5064,-6.5072,-6.5175,-6.5199,-6.5211,-6.53,-6.5299,-6.54,-6.5397,-6.5549,-6.5531,-6.5532,-6.5528,-6.5628,-6.5618,-6.5955,-6.5998,-6.5706,-6.5708,-6.5711,0,-6.4812,-6.4899,-6.4951,-6.5003,-6.5033,-6.5117,-6.5167,-6.5156,-6.521,-6.5274,-6.5341,-6.5427,-6.5494,-6.5639,-6.5657,-6.5735,-6.5717,-6.583,-6.5728,-6.5731,-6.5717,-6.5711,-6.5719,-6.5849,-6.5852,-6.5855,-6.5857,0,-6.5067,-6.5065,-6.5139,-6.5216,-6.5277,-6.5336,-6.539,-6.5435,-6.543,-6.5493,-6.5584,-6.5637,-6.5742,-6.5827,-6.5903,-6.5928,-6.5892,-6.589,-6.5917,-6.5922,-6.5918,-6.592,-6.5584,-6.5881,-6.5879,-6.5877,-6.5876,-6.5875,-6.525,-6.5326,-6.5375,-6.5459,-6.55,-6.5552,-6.5624,-6.5642,-6.5718,-6.5803,-6.5792,-6.5894,-6.5943,-6.6041,-6.6074,-6.6154,-6.6114,-6.6154,-6.6163,-6.6172,-6.6183,-6.5908,-6.6168,-6.6167,-6.6166,-6.6166,-6.6165,0,-6.5501,-6.5531,-6.5609,-6.5688,-6.5755,-6.5717,-6.5776,-6.5835,-6.5925,-6.5974,-6.6043,-6.6148,-6.6232,-6.6258,-6.6338,-6.6397,-6.6383,-6.6419,-6.6413,-6.6419,-6.6214,-6.6182,-6.6429,-6.6429,-6.6429,-6.6429,-6.6429,-6.6429,-6.5639,-6.5765,-6.577,-6.5915,-6.5944,-6.6044,-6.6081,-6.613,-6.6169,-6.6289,-6.6359,-6.6376,-6.6416,-6.65,-6.6576,-6.6581,-6.6612,-6.6655,-6.6653,-6.646,-6.6434,-6.6408,-6.6378,-6.6662,-6.6662,-6.6851,-6.6853,-6.6854]},{"header":{"parameterUnit":"m.s-1","parameterCategory":1,"la1":30.2991,"la2":30.254,"lo1":-89.0895,"lo2":-89.0444,"dy":0.0017,"dx":0.0017,"nx":28,"ny":28,"refTime":"2025-12-16T03:00:00:Z","depth":0,"parameterNumber":3,"parameterNumberName":"V-component_of_WINDS"},"data":[0,0,0,0,0,0,0,0,0,0,0,0,0,0,0,0,0,0,0,0,0,0,0,0,0,0,0,0,0,0,0,0,0,0,0,0,0,0,0,0,0,0,0,0,0,0,0,0,0,0,0,0,0,0,0,0,0,0,0.1161,0.1162,0,0.1259,0.1261,0.1262,0.1276,0.1276,0.1275,0.1274,0.1379,0.1383,0.1386,0,0,0,0,0,0,0,0,0,0,0,0,0,0.099,0.0993,0.1161,0.1162,0.1163,0.1259,0.1261,0.1262,0.1277,0.1276,0.1274,0.1273,0.1378,0.1382,0.1387,0,0,0,0,0,0,0,0,0,0,0,0,0,0.1074,0.0994,0.116,0.1182,0.1185,0.1259,0.1261,0.1262,0.1277,0.1275,0.1274,0.1273,0.1376,0.1382,0.1387,0.1448,0,0,0.1404,0.1406,0,0,0,0,0,0,0,0,0.107,0.1081,0.1178,0.1181,0.1184,0.1254,0.1239,0.1325,0.1277,0.1242,0.1274,0.1272,0.1339,0.1347,0.1369,0.1453,0.1457,0.1404,0.1408,0.141,0.1412,0,0,0,0,0,0,0,0.1064,0.1076,0.12,0.1179,0.1183,0.1188,0.1199,0.1255,0.1297,0.1245,0.1246,0.1258,0.134,0.1364,0.1372,0.1459,0.1404,0.1409,0.1412,0.1415,0.1602,0.1604,0,0,0,0,0,0,0.1053,0.1071,0.1197,0.1203,0.1122,0.1193,0.1204,0.1233,0.1296,0.1305,0.1259,0.1258,0.1355,0.1365,0.1375,0.1454,0.141,0.1415,0.1418,0.16,0.1602,0.1604,0,0,0,0,0,0,0.105,0.1064,0.1193,0.1138,0.1154,0.1197,0.1229,0.1236,0.1259,0.1307,0.1315,0.1274,0.1354,0.1368,0.143,0.1458,0.1418,0.1423,0.1598,0.1601,0.1603,0.161,0,0,0,0,0,0,0.1045,0.1063,0.1085,0.1138,0.1157,0.1245,0.1231,0.1239,0.1268,0.1268,0.1324,0.1332,0.1354,0.1422,0.1436,0.1465,0.1427,0.1596,0.1599,0.1602,0.1607,0.1612,0.1616,0,0,0,0,0,0.1038,0.1083,0.1086,0.1101,0.1186,0.1246,0.1257,0.1281,0.127,0.1294,0.1325,0.133,0.1452,0.1428,0.1444,0.1475,0.1595,0.1599,0.1602,0.1605,0.1611,0.1616,0,0,0,0,0,0,0.1033,0.109,0.1094,0.1157,0.1196,0.1248,0.1279,0.1286,0.1331,0.1329,0.1358,0.1371,0.1433,0.146,0.1433,0.1539,0.1523,0.153,0.1519,0.1525,0.153,0.1524,0.1431,0,0,0,0,0,0.1039,0.1082,0.113,0.1181,0.12,0.1236,0.1263,0.1279,0.1321,0.1339,0.1374,0.1417,0.1465,0.1496,0.1543,0.161,0.1625,0.1639,0.1644,0.1647,0.1654,0.1695,0.1703,0.1617,0.1617,0.1617,0,0,0.1053,0.1089,0.1114,0.1181,0.1213,0.1259,0.125,0.1299,0.1334,0.1346,0.1409,0.1436,0.1486,0.1552,0.1583,0.1576,0.1681,0.1652,0.1654,0.166,0.17,0.1708,0.1716,0.1619,0.1619,0.1618,0,0,0.1101,0.1131,0.1178,0.1211,0.126,0.1284,0.1295,0.1346,0.1365,0.1427,0.1439,0.1481,0.1563,0.1599,0.1628,0.1691,0.1699,0.1706,0.173,0.177,0.1777,0.1783,0.181,0.1818,0.1712,0.1712,0.1712,0,0.1112,0.118,0.1202,0.1251,0.1281,0.1293,0.1343,0.1374,0.1436,0.1458,0.1449,0.1553,0.1587,0.1664,0.168,0.1701,0.1718,0.1701,0.1774,0.1781,0.1787,0.1812,0.1822,0.1712,0.1712,0.1712,0.1712,0,0.1193,0.124,0.1273,0.1332,0.1366,0.1414,0.1446,0.1478,0.149,0.1516,0.1581,0.1622,0.1679,0.1697,0.171,0.1777,0.1772,0.1768,0.1753,0.1795,0.182,0.183,0.1713,0.1713,0.1713,0.1713,0,0,0.1242,0.1313,0.1325,0.1354,0.1409,0.1447,0.1497,0.1552,0.1581,0.1623,0.1668,0.1738,0.1735,0.1768,0.1784,0.1819,0.1871,0.1812,0.1813,0.1824,0.1952,0.1957,0.1968,0.1875,0.1877,0.1879,0.1949,0,0.13,0.1389,0.1411,0.1488,0.1534,0.1547,0.1591,0.1631,0.1657,0.1701,0.1729,0.1779,0.177,0.1791,0.1825,0.1857,0.1898,0.1852,0.1921,0.1923,0.1912,0.198,0.1985,0.205,0.1959,0.196,0.1961,0,0.1379,0.1423,0.1505,0.1557,0.1577,0.1616,0.167,0.171,0.1757,0.1773,0.181,0.1824,0.188,0.1859,0.1939,0.1907,0.1937,0.1957,0.196,0.197,0.1947,0.1996,0.2071,0.2082,0.1976,0.1975,0.1974,0,0.1412,0.1491,0.1551,0.1575,0.1635,0.1664,0.169,0.1735,0.1768,0.1814,0.1836,0.1889,0.1919,0.1961,0.1989,0.1971,0.2068,0.2048,0.2086,0.2085,0.2108,0.2107,0.2193,0.2121,0.212,0.212,0.212,0,0.1476,0.1527,0.1567,0.1605,0.1662,0.1688,0.1745,0.1772,0.1812,0.1857,0.187,0.1913,0.1946,0.1993,0.2016,0.208,0.2093,0.211,0.2116,0.2111,0.2109,0.2133,0.2131,0.2123,0.2122,0.2122,0.2121,0,0.1523,0.1552,0.1619,0.1671,0.1685,0.1726,0.1772,0.181,0.1835,0.1892,0.1907,0.1947,0.2004,0.2036,0.2107,0.2122,0.2195,0.2197,0.218,0.2183,0.222,0.2217,0.2327,0.2344,0.2257,0.2258,0.2258,0,0.1564,0.1604,0.166,0.169,0.1717,0.1766,0.1799,0.1826,0.186,0.1917,0.1949,0.2006,0.2054,0.2144,0.2181,0.2237,0.2243,0.2277,0.2251,0.2246,0.2248,0.2247,0.2253,0.2283,0.2283,0.2284,0.2284,0,0.1635,0.1648,0.1694,0.1746,0.1785,0.1828,0.187,0.1895,0.1929,0.1967,0.2025,0.2061,0.2134,0.2192,0.2251,0.2281,0.229,0.2292,0.2304,0.2301,0.2291,0.2301,0.2196,0.229,0.229,0.2289,0.2289,0.2289,0.1684,0.172,0.1766,0.1818,0.1853,0.1892,0.1931,0.1962,0.201,0.2071,0.2083,0.2145,0.2194,0.2273,0.2304,0.2355,0.2349,0.2365,0.2371,0.2375,0.2379,0.228,0.2365,0.2365,0.2365,0.2365,0.2365,0,0.1759,0.1789,0.1836,0.1895,0.1937,0.1939,0.1986,0.2022,0.2076,0.2119,0.2165,0.2233,0.229,0.2331,0.239,0.2423,0.2429,0.2437,0.2437,0.2445,0.2379,0.2364,0.2432,0.2432,0.2432,0.2432,0.2432,0.2432,0.1803,0.1867,0.1885,0.1966,0.1996,0.2056,0.2084,0.2122,0.2156,0.2231,0.2278,0.2304,0.2348,0.241,0.2463,0.2474,0.2497,0.2506,0.2518,0.2456,0.2449,0.2442,0.2429,0.2509,0.2509,0.2581,0.2581,0.2582]}]]